Terminal Aerodrome Forecast
Issued by NWS Grand Forks, ND

Home | Current Version | Previous Version | Text Only | Print | Product List | Glossary Off
Versions: 1 2 3 4 5 6 7 8 9 10 11 12 13 14

000
FTUS43 KFGF 190500
TAFFAR
TAF
KFAR 190521Z 1906/2006 16009KT P6SM OVC015
      TEMPO 1910/1914 5SM -SN BKN007=

USA.gov is the U.S. government's official web portal to all federal, state and local government web resources and services.